Powrót do katalogu

FENGYUN 1C DEB

AktywnySSO
NORAD 31691·DEBRIS·🇨🇳 China

Wystrzelony May 10, 1999 z Taiyuan Satellite Launch Center

Loading…

Następne Przeloty (najbliższe 24 godziny)

TLE

Starzejące sięSource: Space-Track

Epoka: Sep 8, 2026, 02:08 UTC

1 31691U 99025CCZ 26251.08928168  .00003273  00000-0  12997-2 0  9998
2 31691  98.8773 346.6876 0060143 177.7770 182.3690 14.28464707679547

Śledź FENGYUN 1C DEB w czasie rzeczywistym z AllMySat

Download on the App Store